Time,TemperatureF,DewpointF,PressureIn,WindDirection,WindDirectionDegrees,WindSpeedMPH,WindSpeedGustMPH,Humidity,HourlyPrecipIn,Conditions,Clouds,dailyrainin,SoftwareType,DateUTC
2013-01-21 00:00:00,18.2,16.0,30.41,North,360,0.0,0.0,91,0.00,,,0.00,weatherlink.com 1.10,2013-01-21 08:00:00,
2013-01-21 00:14:00,18.7,17.0,30.41,North,360,0.0,0.0,91,0.00,,,0.00,weatherlink.com 1.10,2013-01-21 08:14:00,
2013-01-21 00:30:00,19.2,17.0,30.41,North,5,0.0,0.0,92,0.00,,,0.00,weatherlink.com 1.10,2013-01-21 08:30:00,
2013-01-21 00:45:00,19.4,18.0,30.41,North,5,0.0,1.0,92,0.00,,,0.00,weatherlink.com 1.10,2013-01-21 08:45:00,
2013-01-21 01:00:00,19.7,18.0,30.40,North,5,0.0,0.0,92,0.00,,,0.00,weatherlink.com 1.10,2013-01-21 09:00:00,
2013-01-21 01:16:00,19.9,18.0,30.40,North,360,0.0,0.0,92,0.00,,,0.00,weatherlink.com 1.10,2013-01-21 09:16:00,
2013-01-21 01:31:00,19.9,18.0,30.40,North,5,0.0,0.0,92,0.00,,,0.00,weatherlink.com 1.10,2013-01-21 09:31:00,
2013-01-21 01:46:00,19.8,18.0,30.41,North,360,0.0,0.0,92,0.00,,,0.00,weatherlink.com 1.10,2013-01-21 09:46:00,
2013-01-21 02:01:00,20.0,18.0,30.41,North,360,0.0,0.0,92,0.00,,,0.00,weatherlink.com 1.10,2013-01-21 10:01:00,
2013-01-21 02:16:00,20.4,19.0,30.41,North,5,0.0,3.0,92,0.00,,,0.00,weatherlink.com 1.10,2013-01-21 10:16:00,
2013-01-21 02:47:00,20.9,19.0,30.41,North,5,0.0,0.0,92,0.00,,,0.00,weatherlink.com 1.10,2013-01-21 10:47:00,
2013-01-21 03:02:00,20.8,19.0,30.40,North,360,0.0,1.0,92,0.00,,,0.00,weatherlink.com 1.10,2013-01-21 11:02:00,
2013-01-21 03:17:00,20.8,19.0,30.40,North,5,0.0,3.0,92,0.00,,,0.00,weatherlink.com 1.10,2013-01-21 11:17:00,
2013-01-21 03:32:00,20.5,19.0,30.39,North,5,0.0,0.0,92,0.00,,,0.00,weatherlink.com 1.10,2013-01-21 11:32:00,
2013-01-21 03:47:00,20.6,19.0,30.39,North,360,0.0,0.0,92,0.00,,,0.00,weatherlink.com 1.10,2013-01-21 11:47:00,
2013-01-21 04:02:00,20.9,19.0,30.39,North,5,0.0,1.0,92,0.00,,,0.00,weatherlink.com 1.10,2013-01-21 12:02:00,
2013-01-21 04:17:00,20.6,19.0,30.39,North,5,0.0,0.0,92,0.00,,,0.00,weatherlink.com 1.10,2013-01-21 12:17:00,
2013-01-21 04:34:00,20.5,19.0,30.39,North,5,0.0,0.0,92,0.00,,,0.00,weatherlink.com 1.10,2013-01-21 12:34:00,
2013-01-21 04:47:00,20.7,19.0,30.39,North,360,0.0,0.0,92,0.00,,,0.00,weatherlink.com 1.10,2013-01-21 12:47:00,
2013-01-21 05:04:00,20.6,19.0,30.39,North,360,0.0,0.0,92,0.00,,,0.00,weatherlink.com 1.10,2013-01-21 13:04:00,
2013-01-21 05:20:00,20.6,19.0,30.38,North,360,0.0,0.0,92,0.00,,,0.00,weatherlink.com 1.10,2013-01-21 13:20:00,
2013-01-21 05:35:00,20.3,18.0,30.38,North,5,0.0,0.0,92,0.00,,,0.00,weatherlink.com 1.10,2013-01-21 13:35:00,
2013-01-21 05:50:00,20.4,19.0,30.38,North,5,0.0,0.0,92,0.00,,,0.00,weatherlink.com 1.10,2013-01-21 13:50:00,
2013-01-21 06:04:00,20.3,18.0,30.38,North,5,0.0,0.0,92,0.00,,,0.00,weatherlink.com 1.10,2013-01-21 14:04:00,
2013-01-21 06:20:00,20.3,18.0,30.37,North,5,0.0,0.0,92,0.00,,,0.00,weatherlink.com 1.10,2013-01-21 14:20:00,
2013-01-21 06:34:00,20.1,18.0,30.37,North,5,0.0,0.0,92,0.00,,,0.00,weatherlink.com 1.10,2013-01-21 14:34:00,
2013-01-21 06:50:00,19.8,18.0,30.37,North,5,0.0,0.0,92,0.00,,,0.00,weatherlink.com 1.10,2013-01-21 14:50:00,
2013-01-21 07:04:00,19.9,18.0,30.36,North,5,0.0,0.0,92,0.00,,,0.00,weatherlink.com 1.10,2013-01-21 15:04:00,
2013-01-21 07:19:00,20.0,18.0,30.36,North,5,0.0,0.0,92,0.00,,,0.00,weatherlink.com 1.10,2013-01-21 15:19:00,
2013-01-21 07:34:00,19.8,18.0,30.36,North,360,0.0,0.0,92,0.00,,,0.00,weatherlink.com 1.10,2013-01-21 15:34:00,
2013-01-21 07:49:00,19.7,18.0,30.36,North,5,0.0,0.0,92,0.00,,,0.00,weatherlink.com 1.10,2013-01-21 15:49:00,
2013-01-21 08:05:00,19.1,17.0,30.37,North,5,0.0,0.0,91,0.00,,,0.00,weatherlink.com 1.10,2013-01-21 16:05:00,
2013-01-21 08:19:00,18.4,16.0,30.37,North,360,0.0,0.0,91,0.00,,,0.00,weatherlink.com 1.10,2013-01-21 16:19:00,
2013-01-21 08:50:00,18.9,17.0,30.36,North,5,0.0,0.0,92,0.00,,,0.00,weatherlink.com 1.10,2013-01-21 16:50:00,
2013-01-21 09:05:00,19.7,18.0,30.37,North,360,0.0,0.0,92,0.00,,,0.00,weatherlink.com 1.10,2013-01-21 17:05:00,
2013-01-21 09:20:00,19.7,18.0,30.37,North,360,0.0,0.0,92,0.00,,,0.00,weatherlink.com 1.10,2013-01-21 17:20:00,
2013-01-21 09:35:00,19.9,18.0,30.37,North,360,0.0,0.0,92,0.00,,,0.00,weatherlink.com 1.10,2013-01-21 17:35:00,
2013-01-21 09:51:00,20.9,19.0,30.37,North,5,0.0,0.0,92,0.00,,,0.00,weatherlink.com 1.10,2013-01-21 17:51:00,
2013-01-21 10:06:00,20.4,18.0,30.37,North,360,0.0,0.0,91,0.00,,,0.00,weatherlink.com 1.10,2013-01-21 18:06:00,
2013-01-21 10:22:00,21.4,20.0,30.36,North,5,0.0,0.0,92,0.00,,,0.00,weatherlink.com 1.10,2013-01-21 18:22:00,
2013-01-21 10:36:00,22.7,21.0,30.36,North,5,0.0,0.0,93,0.00,,,0.00,weatherlink.com 1.10,2013-01-21 18:36:00,
2013-01-21 10:53:00,23.3,22.0,30.36,North,5,0.0,0.0,93,0.00,,,0.00,weatherlink.com 1.10,2013-01-21 18:53:00,
2013-01-21 11:06:00,23.2,21.0,30.36,North,5,0.0,0.0,92,0.00,,,0.00,weatherlink.com 1.10,2013-01-21 19:06:00,
2013-01-21 11:22:00,23.6,22.0,30.35,North,5,0.0,3.0,93,0.00,,,0.00,weatherlink.com 1.10,2013-01-21 19:22:00,
2013-01-21 11:36:00,23.3,21.0,30.35,North,5,0.0,0.0,92,0.00,,,0.00,weatherlink.com 1.10,2013-01-21 19:36:00,
2013-01-21 11:52:00,23.9,22.0,30.34,North,5,0.0,3.0,93,0.00,,,0.00,weatherlink.com 1.10,2013-01-21 19:52:00,
2013-01-21 12:07:00,24.8,23.0,30.33,North,5,0.0,1.0,93,0.00,,,0.00,weatherlink.com 1.10,2013-01-21 20:07:00,
2013-01-21 12:22:00,26.0,24.0,30.32,North,5,0.0,0.0,93,0.01,,,0.01,weatherlink.com 1.10,2013-01-21 20:22:00,
2013-01-21 12:37:00,26.0,24.0,30.31,North,5,0.0,0.0,93,0.01,,,0.01,weatherlink.com 1.10,2013-01-21 20:37:00,
2013-01-21 12:53:00,25.6,24.0,30.30,North,360,0.0,3.0,93,0.01,,,0.01,weatherlink.com 1.10,2013-01-21 20:53:00,
2013-01-21 13:08:00,25.6,24.0,30.29,North,360,0.0,2.0,93,0.01,,,0.01,weatherlink.com 1.10,2013-01-21 21:08:00,
2013-01-21 13:25:00,26.2,25.0,30.29,North,360,0.0,0.0,93,0.00,,,0.01,weatherlink.com 1.10,2013-01-21 21:25:00,
2013-01-21 13:39:00,26.3,25.0,30.28,North,5,0.0,4.0,93,0.00,,,0.01,weatherlink.com 1.10,2013-01-21 21:39:00,
2013-01-21 13:54:00,26.2,25.0,30.29,North,360,0.0,4.0,93,0.00,,,0.01,weatherlink.com 1.10,2013-01-21 21:54:00,
2013-01-21 14:09:00,27.7,26.0,30.28,North,360,2.0,4.0,94,0.00,,,0.01,weatherlink.com 1.10,2013-01-21 22:09:00,
2013-01-21 14:24:00,28.1,26.0,30.29,North,5,1.0,5.0,93,0.00,,,0.01,weatherlink.com 1.10,2013-01-21 22:24:00,
2013-01-21 14:54:00,26.3,25.0,30.29,North,5,0.0,4.0,93,0.00,,,0.01,weatherlink.com 1.10,2013-01-21 22:54:00,
2013-01-21 15:09:00,26.2,25.0,30.30,North,360,0.0,0.0,93,0.00,,,0.01,weatherlink.com 1.10,2013-01-21 23:09:00,
2013-01-21 15:24:00,26.6,25.0,30.30,North,5,0.0,0.0,93,0.00,,,0.01,weatherlink.com 1.10,2013-01-21 23:24:00,
2013-01-21 15:40:00,27.0,25.0,30.29,North,5,0.0,0.0,93,0.00,,,0.01,weatherlink.com 1.10,2013-01-21 23:40:00,
2013-01-21 15:55:00,26.2,25.0,30.29,North,5,0.0,0.0,93,0.00,,,0.01,weatherlink.com 1.10,2013-01-21 23:55:00,
2013-01-21 16:10:00,26.2,25.0,30.29,North,5,0.0,2.0,93,0.00,,,0.01,weatherlink.com 1.10,2013-01-22 00:10:00,
2013-01-21 16:25:00,25.9,24.0,30.30,North,360,0.0,4.0,93,0.00,,,0.01,weatherlink.com 1.10,2013-01-22 00:25:00,
2013-01-21 16:40:00,25.7,24.0,30.30,North,360,0.0,0.0,93,0.00,,,0.01,weatherlink.com 1.10,2013-01-22 00:40:00,
2013-01-21 16:55:00,25.4,24.0,30.30,North,360,0.0,0.0,93,0.00,,,0.01,weatherlink.com 1.10,2013-01-22 00:55:00,
2013-01-21 17:10:00,24.8,23.0,30.30,North,5,0.0,0.0,93,0.00,,,0.01,weatherlink.com 1.10,2013-01-22 01:10:00,
2013-01-21 17:26:00,24.8,23.0,30.30,North,5,0.0,0.0,93,0.00,,,0.01,weatherlink.com 1.10,2013-01-22 01:26:00,
2013-01-21 17:41:00,24.5,23.0,30.31,North,5,0.0,0.0,93,0.00,,,0.01,weatherlink.com 1.10,2013-01-22 01:41:00,
2013-01-21 17:56:00,24.1,22.0,30.31,North,5,0.0,0.0,93,0.00,,,0.01,weatherlink.com 1.10,2013-01-22 01:56:00,
2013-01-21 18:11:00,23.5,22.0,30.31,North,5,0.0,0.0,93,0.00,,,0.01,weatherlink.com 1.10,2013-01-22 02:11:00,
2013-01-21 18:41:00,22.2,21.0,30.32,North,360,0.0,0.0,93,0.00,,,0.01,weatherlink.com 1.10,2013-01-22 02:41:00,
2013-01-21 18:56:00,21.7,20.0,30.32,North,5,0.0,0.0,92,0.00,,,0.01,weatherlink.com 1.10,2013-01-22 02:56:00,
2013-01-21 19:12:00,21.4,20.0,30.32,North,360,0.0,0.0,93,0.00,,,0.01,weatherlink.com 1.10,2013-01-22 03:12:00,
2013-01-21 19:27:00,20.8,19.0,30.32,North,5,0.0,0.0,92,0.00,,,0.01,weatherlink.com 1.10,2013-01-22 03:27:00,
2013-01-21 19:42:00,20.4,19.0,30.32,North,360,0.0,0.0,92,0.00,,,0.01,weatherlink.com 1.10,2013-01-22 03:42:00,
2013-01-21 19:58:00,20.2,18.0,30.32,North,5,0.0,0.0,92,0.00,,,0.01,weatherlink.com 1.10,2013-01-22 03:58:00,
2013-01-21 20:12:00,19.9,18.0,30.32,North,5,0.0,0.0,92,0.00,,,0.01,weatherlink.com 1.10,2013-01-22 04:12:00,
2013-01-21 20:27:00,19.8,18.0,30.31,North,5,0.0,0.0,92,0.00,,,0.01,weatherlink.com 1.10,2013-01-22 04:27:00,
2013-01-21 20:42:00,20.0,18.0,30.31,North,5,0.0,0.0,92,0.00,,,0.01,weatherlink.com 1.10,2013-01-22 04:42:00,
2013-01-21 20:58:00,19.4,18.0,30.31,North,360,0.0,0.0,92,0.00,,,0.01,weatherlink.com 1.10,2013-01-22 04:58:00,
2013-01-21 21:14:00,18.9,17.0,30.30,North,5,0.0,0.0,92,0.00,,,0.01,weatherlink.com 1.10,2013-01-22 05:14:00,
2013-01-21 21:29:00,18.7,17.0,30.31,North,360,0.0,0.0,92,0.00,,,0.01,weatherlink.com 1.10,2013-01-22 05:29:00,
2013-01-21 21:44:00,17.9,16.0,30.31,North,5,0.0,0.0,91,0.00,,,0.01,weatherlink.com 1.10,2013-01-22 05:44:00,
2013-01-21 21:59:00,16.8,15.0,30.32,North,5,0.0,0.0,91,0.00,,,0.01,weatherlink.com 1.10,2013-01-22 05:59:00,
2013-01-21 22:14:00,17.7,16.0,30.32,North,5,0.0,1.0,92,0.00,,,0.01,weatherlink.com 1.10,2013-01-22 06:14:00,
2013-01-21 22:29:00,19.3,17.0,30.32,North,5,0.0,1.0,92,0.00,,,0.01,weatherlink.com 1.10,2013-01-22 06:29:00,
2013-01-21 22:44:00,19.8,18.0,30.32,North,5,0.0,0.0,92,0.00,,,0.01,weatherlink.com 1.10,2013-01-22 06:44:00,
2013-01-21 22:59:00,20.3,19.0,30.32,North,5,0.0,0.0,93,0.00,,,0.01,weatherlink.com 1.10,2013-01-22 06:59:00,
2013-01-21 23:14:00,20.8,19.0,30.33,North,5,0.0,2.0,93,0.00,,,0.01,weatherlink.com 1.10,2013-01-22 07:14:00,
2013-01-21 23:29:00,20.9,19.0,30.32,North,5,0.0,4.0,93,0.00,,,0.01,weatherlink.com 1.10,2013-01-22 07:29:00,
2013-01-21 23:44:00,21.0,19.0,30.32,North,5,1.0,4.0,93,0.00,,,0.01,weatherlink.com 1.10,2013-01-22 07:44:00,
2013-01-21 23:59:00,21.1,19.0,30.32,North,360,0.0,3.0,93,0.00,,,0.01,weatherlink.com 1.10,2013-01-22 07:59:00,